CW9206 Weather Reports


time (UTC)temp
C
wind
direction
speed
KPH
gust
KPH
rain 1hr
cm
rain 24hr
cm
rain mn
cm
humidity
%
barometer
mb
20260506150730 14 339 0.0 1.6 0.00 0.00 0.00 20 1017.5
20260506150229 13 339 0.0 0.0 0.00 0.00 0.00 18 1017.4
20260506145729 13 338 0.0 0.0 0.00 0.00 0.00 18 1017.6
20260506145229 13 338 0.0 0.0 0.00 0.00 0.00 18 1017.5
20260506144729 13 339 0.0 4.8 0.00 0.00 0.00 18 1017.5
20260506144229 13 339 0.0 4.8 0.00 0.00 0.00 18 1017.5
20260506143729 13 339 0.0 1.6 0.00 0.00 0.00 17 1017.4
20260506143229 13 339 0.0 0.0 0.00 0.00 0.00 17 1017.4
20260506142229 12 338 0.0 0.0 0.00 0.00 0.00 17 1017.4
20260506141729 12 340 0.0 0.0 0.00 0.00 0.00 17 1017.4
20260506140728 12 334 0.0 0.0 0.00 0.00 0.00 16 1017.4
20260506140229 12 303 0.0 0.0 0.00 0.00 0.00 16 1017.4
20260506135728 12 303 0.0 0.0 0.00 0.00 0.00 16 1017.4
20260506135229 12 304 0.0 0.0 0.00 0.00 0.00 16 1017.3
20260506134729 12 304 0.0 0.0 0.00 0.00 0.00 16 1017.4
20260506134228 12 304 0.0 0.0 0.00 0.00 0.00 16 1017.3
20260506133729 12 304 0.0 0.0 0.00 0.00 0.00 16 1017.4
20260506133228 12 304 0.0 0.0 0.00 0.00 0.00 16 1017.3
20260506132728 12 304 0.0 0.0 0.00 0.00 0.00 16 1017.2
20260506132228 12 304 0.0 0.0 0.00 0.00 0.00 16 1017.1
20260506131728 12 304 0.0 0.0 0.00 0.00 0.00 16 1017.1
20260506130228 12 304 0.0 0.0 0.00 0.00 0.00 16 1016.9
20260506125228 12 304 0.0 0.0 0.00 0.00 0.00 16 1016.9
20260506124728 12 304 0.0 0.0 0.00 0.00 0.00 16 1017.0
20260506124228 12 304 0.0 0.0 0.00 0.00 0.00 16 1017.0
20260506123727 12 304 0.0 0.0 0.00 0.00 0.00 16 1016.9
20260506123227 12 304 0.0 0.0 0.00 0.00 0.00 15 1016.9
20260506122727 12 295 0.0 0.0 0.00 0.00 0.00 15 1017.0
20260506121728 12 295 0.0 0.0 0.00 0.00 0.00 15 1017.0
20260506121226 12 295 0.0 0.0 0.00 0.00 0.00 15 1016.9
20260506120727 12 295 0.0 0.0 0.00 0.00 0.00 15 1016.9
20260506120227 12 295 0.0 0.0 0.00 0.00 0.00 15 1016.9
20260506115227 12 295 0.0 0.0 0.00 0.00 0.00 15 1017.2
20260506114726 12 295 0.0 0.0 0.00 0.00 0.00 15 1017.2
20260506114227 12 295 0.0 0.0 0.00 0.00 0.00 15 1017.3
20260506113726 12 295 0.0 0.0 0.00 0.00 0.00 15 1017.3
20260506112226 12 295 0.0 0.0 0.00 0.00 0.00 15 1017.2
20260506111726 12 295 0.0 0.0 0.00 0.00 0.00 15 1017.2
20260506111227 12 295 0.0 0.0 0.00 0.00 0.00 15 1017.1
20260506110726 12 295 0.0 0.0 0.00 0.00 0.00 15 1017.1
20260506110226 12 295 0.0 0.0 0.00 0.00 0.00 15 1017.2
20260506105726 12 295 0.0 0.0 0.00 0.00 0.00 15 1017.2
20260506104726 12 295 0.0 0.0 0.00 0.00 0.00 15 1017.1
20260506103725 12 295 0.0 0.0 0.00 0.00 0.00 15 1017.1
20260506103225 12 295 0.0 0.0 0.00 0.00 0.00 15 1017.1
20260506102726 12 295 0.0 0.0 0.00 0.00 0.00 15 1017.1
20260506101725 12 295 0.0 0.0 0.00 0.00 0.00 15 1017.0
20260506101225 12 295 0.0 0.0 0.00 0.00 0.00 15 1017.1
20260506100725 12 295 0.0 0.0 0.00 0.00 0.00 15 1017.1
20260506100225 12 295 0.0 0.0 0.00 0.00 0.00 15 1017.0
20260506095725 12 295 0.0 0.0 0.00 0.00 0.00 15 1016.9
20260506094225 12 295 3.2 3.2 0.00 0.00 0.00 15 1017.0
20260506093224 12 295 0.0 0.0 0.00 0.00 0.00 15 1017.0
20260506092725 12 295 0.0 3.2 0.00 0.00 0.00 15 1017.0
20260506092225 12 295 0.0 3.2 0.00 0.00 0.00 15 1017.0
20260506091724 12 295 0.0 0.0 0.00 0.00 0.00 15 1017.1
20260506091225 12 295 0.0 0.0 0.00 0.00 0.00 14 1017.1
20260506090724 12 295 0.0 0.0 0.00 0.00 0.00 14 1017.1
20260506085724 12 295 0.0 1.6 0.00 0.00 0.00 14 1017.2
20260506085224 12 295 0.0 8.0 0.00 0.00 0.00 14 1017.3
20260506084724 12 295 0.0 8.0 0.00 0.00 0.00 14 1017.3
20260506084224 12 294 0.0 6.4 0.00 0.00 0.00 14 1017.4
20260506083724 12 294 0.0 0.0 0.00 0.00 0.00 14 1017.3
20260506083223 12 294 0.0 0.0 0.00 0.00 0.00 14 1017.4
20260506082724 12 294 0.0 0.0 0.00 0.00 0.00 14 1017.4
20260506082224 12 294 0.0 0.0 0.00 0.00 0.00 14 1017.5
20260506081723 12 294 0.0 0.0 0.00 0.00 0.00 15 1017.3
20260506080723 12 294 0.0 0.0 0.00 0.00 0.00 15 1017.4
20260506080223 11 294 0.0 0.0 0.00 0.00 0.00 15 1017.3
20260506073223 11 294 0.0 0.0 0.00 0.00 0.00 17 1017.3
20260506072723 11 294 0.0 0.0 0.00 0.00 0.00 18 1017.3
20260506072223 11 294 0.0 0.0 0.00 0.00 0.00 18 1017.3
20260506071723 11 294 0.0 0.0 0.00 0.00 0.00 18 1017.2
20260506070253 11 294 0.0 0.0 0.00 0.00 0.00 19 1017.1
20260506062252 11 294 0.0 0.0 0.00 0.00 0.00 19 1016.9
20260506061752 11 294 0.0 0.0 0.00 0.00 0.00 19 1016.8
20260506061252 12 294 0.0 0.0 0.00 0.00 0.00 19 1016.8
20260506060752 12 294 0.0 0.0 0.00 0.00 0.00 19 1016.8
20260506060251 12 294 0.0 0.0 0.00 0.00 0.00 20 1016.8
20260506051251 12 294 0.0 0.0 0.00 0.00 0.00 25 1016.6
20260506050751 12 294 0.0 0.0 0.00 0.00 0.00 25 1016.6
20260506050251 12 294 0.0 0.0 0.00 0.00 0.00 26 1016.5
20260506044751 12 294 0.0 0.0 0.00 0.00 0.00 28 1016.2
20260506044250 13 294 0.0 4.8 0.00 0.00 0.00 29 1016.2
20260506043751 13 294 0.0 4.8 0.00 0.00 0.00 30 1016.0
20260506043251 13 294 0.0 3.2 0.00 0.00 0.00 31 1016.0
20260506042750 13 294 0.0 1.6 0.00 0.00 0.00 31 1016.0
20260506042250 13 294 0.0 1.6 0.00 0.00 0.00 32 1016.0
20260506041750 13 294 0.0 0.0 0.00 0.00 0.00 33 1015.9
20260506041250 13 294 0.0 6.4 0.00 0.00 0.00 34 1015.8
20260506040750 13 294 0.0 6.4 0.00 0.00 0.00 35 1015.7
20260506040250 13 294 0.0 4.8 0.00 0.00 0.00 36 1015.6
20260506035750 14 294 0.0 4.8 0.00 0.00 0.00 37 1015.4
20260506034750 14 294 0.0 6.4 0.00 0.00 0.00 38 1015.3
20260506034250 15 294 4.8 6.4 0.00 0.00 0.00 39 1015.2
20260506033749 15 294 1.6 6.4 0.00 0.00 0.00 39 1015.1
20260506033249 15 294 0.0 1.6 0.00 0.00 0.00 40 1015.1
20260506032749 15 294 0.0 3.2 0.00 0.00 0.00 41 1015.0
20260506032249 15 294 1.6 6.4 0.00 0.00 0.00 41 1014.8
20260506031249 15 296 0.0 6.4 0.00 0.00 0.00 43 1014.7
20260506030749 15 296 0.0 6.4 0.00 0.00 0.00 43 1014.7
20260506030249 16 298 0.0 8.0 0.00 0.00 0.00 44 1014.6
20260506025749 16 298 0.0 8.0 0.00 0.00 0.00 44 1014.5
20260506025249 16 304 0.0 9.7 0.00 0.00 0.00 45 1014.3
20260506024749 16 302 0.0 9.7 0.00 0.00 0.00 46 1014.3
20260506023748 16 303 4.8 12.9 0.00 0.00 0.00 47 1014.0
20260506023249 16 305 1.6 12.9 0.00 0.00 0.00 48 1013.8
20260506022748 16 318 0.0 8.0 0.00 0.00 0.00 49 1013.9
20260506022248 17 271 1.6 6.4 0.00 0.00 0.00 50 1013.9
20260506021748 17 273 1.6 14.5 0.00 0.00 0.00 50 1013.9
20260506020749 17 294 1.6 14.5 0.00 0.00 0.00 51 1013.9
20260506015248 18 300 8.0 19.3 0.00 0.00 0.00 51 1013.7
20260506014748 18 302 4.8 22.5 0.00 0.00 0.00 50 1013.4
20260506012748 20 300 0.0 11.3 0.00 0.00 0.00 49 1013.3
20260506012248 20 297 1.6 16.1 0.00 0.00 0.00 48 1013.3
20260506011748 21 257 4.8 16.1 0.00 0.00 0.00 49 1013.4
20260506011248 21 311 6.4 16.1 0.00 0.00 0.00 48 1013.4
20260506010747 21 317 6.4 11.3 0.00 0.00 0.00 48 1013.3
20260506010248 21 269 11.3 19.3 0.00 0.00 0.00 47 1013.3
20260506005748 21 314 6.4 19.3 0.00 0.00 0.00 47 1013.3
20260506005248 22 303 0.0 19.3 0.00 0.00 0.00 46 1013.3
20260506004247 22 307 17.7 22.5 0.00 0.00 0.00 45 1013.3
20260506003747 22 360 1.6 20.9 0.00 0.00 0.00 44 1013.2
20260506003247 22 311 1.6 20.9 0.00 0.00 0.00 44 1013.3
20260506002748 22 321 4.8 17.7 0.00 0.00 0.00 44 1013.3
20260506002247 22 296 11.3 17.7 0.00 0.00 0.00 44 1013.3
20260506001747 22 335 6.4 17.7 0.00 0.00 0.00 44 1013.3
20260506000747 23 328 8.0 17.7 0.00 0.00 0.00 43 1013.3
20260506000247 23 315 17.7 17.7 0.00 0.00 0.00 43 1013.3
20260505235246 23 318 9.7 16.1 0.00 0.00 0.00 43 1013.1
20260505234747 23 343 11.3 19.3 0.00 0.00 0.00 43 1013.0
20260505234247 23 17 4.8 19.3 0.00 0.00 0.00 43 1013.1
20260505233747 23 317 16.1 22.5 0.00 0.00 0.00 42 1013.1
20260505233246 23 288 4.8 22.5 0.00 0.00 0.00 42 1013.2
20260505232746 23 321 1.6 17.7 0.00 0.00 0.00 42 1013.2
20260505232246 23 331 8.0 22.5 0.00 0.00 0.00 42 1013.2
20260505231746 24 302 9.7 22.5 0.00 0.00 0.00 41 1013.2
20260505230246 24 303 8.0 24.1 0.00 0.00 0.00 41 1013.4
20260505225745 24 346 9.7 22.5 0.00 0.00 0.00 40 1013.3
20260505224746 23 325 12.9 20.9 0.00 0.00 0.00 41 1013.4
20260505224246 23 299 8.0 20.9 0.00 0.00 0.00 41 1013.3
20260505223745 23 309 11.3 20.9 0.00 0.00 0.00 41 1013.3
20260505223245 23 303 3.2 19.3 0.00 0.03 0.00 42 1013.4
20260505222745 23 309 4.8 22.5 0.00 0.03 0.00 42 1013.3
20260505222245 22 332 4.8 22.5 0.00 0.03 0.00 43 1013.3
20260505221245 21 318 6.4 17.7 0.00 0.03 0.00 44 1013.4
20260505220745 21 327 4.8 17.7 0.00 0.03 0.00 45 1013.4
20260505215745 21 302 1.6 30.6 0.00 0.03 0.00 46 1013.5
20260505214745 21 317 9.7 24.1 0.00 0.03 0.00 45 1013.6
20260505214245 20 301 22.5 22.5 0.00 0.03 0.00 46 1013.5
20260505213744 20 304 4.8 22.5 0.00 0.03 0.00 46 1013.6
20260505213245 20 302 14.5 22.5 0.00 0.03 0.00 46 1013.6
20260505212744 20 229 4.8 22.5 0.00 0.03 0.00 46 1013.6
20260505212244 20 304 8.0 22.5 0.00 0.03 0.00 46 1013.6
20260505211744 20 311 22.5 22.5 0.00 0.03 0.00 46 1013.6
20260505211244 20 318 4.8 29.0 0.00 0.03 0.00 46 1013.6
20260505210744 21 313 12.9 29.0 0.00 0.03 0.00 45 1013.5
20260505205244 21 249 9.7 19.3 0.00 0.03 0.00 45 1013.5
20260505204744 21 295 0.0 29.0 0.00 0.03 0.00 45 1013.5
20260505203744 22 325 8.0 24.1 0.00 0.03 0.00 44 1013.6
20260505202743 22 286 14.5 22.5 0.00 0.03 0.00 42 1013.6
20260505202244 22 185 8.0 22.5 0.00 0.03 0.00 42 1013.6
20260505201744 22 302 6.4 20.9 0.00 0.03 0.00 42 1013.6
20260505201243 22 286 0.0 29.0 0.00 0.03 0.00 43 1013.7
20260505200744 22 288 6.4 29.0 0.00 0.03 0.00 43 1013.8
20260505200243 22 312 4.8 14.5 0.00 0.03 0.00 43 1013.7
20260505195243 22 275 6.4 22.5 0.00 0.03 0.00 42 1013.7
20260505194243 21 291 20.9 25.7 0.00 0.03 0.00 43 1013.8
20260505193742 21 312 4.8 19.3 0.00 0.03 0.00 44 1013.9
20260505193244 20 306 14.5 22.5 0.00 0.03 0.00 44 1014.0
20260505192743 21 264 6.4 22.5 0.00 0.03 0.00 43 1014.0
20260505192243 21 292 11.3 22.5 0.00 0.03 0.00 43 1014.0
20260505191743 21 309 3.2 20.9 0.00 0.03 0.00 43 1013.9
20260505191243 21 11 6.4 19.3 0.00 0.03 0.00 43 1013.9
20260505190742 21 318 6.4 19.3 0.00 0.03 0.00 43 1014.0
20260505190242 21 281 4.8 14.5 0.00 0.03 0.00 43 1013.9
20260505185742 21 281 4.8 12.9 0.00 0.03 0.00 43 1013.9
20260505185242 21 310 6.4 14.5 0.00 0.03 0.00 43 1013.9
20260505184242 21 294 11.3 17.7 0.00 0.03 0.00 41 1013.8
20260505183742 22 302 4.8 19.3 0.00 0.03 0.00 40 1013.8
20260505183242 22 292 9.7 19.3 0.00 0.03 0.00 40 1013.8
20260505182742 22 310 6.4 17.7 0.00 0.03 0.00 39 1013.9
20260505182241 21 341 6.4 17.7 0.00 0.03 0.00 39 1014.0
20260505181241 21 315 6.4 16.1 0.00 0.03 0.00 40 1014.1
20260505180741 20 306 4.8 19.3 0.00 0.03 0.00 40 1014.0
20260505180241 20 317 4.8 19.3 0.00 0.03 0.00 39 1014.1
20260505175242 20 306 0.0 14.5 0.00 0.03 0.00 39 1014.0
20260505174741 19 314 9.7 19.3 0.00 0.03 0.00 39 1013.9
20260505173741 19 338 0.0 16.1 0.00 0.03 0.00 38 1014.0
20260505172741 18 221 4.8 14.5 0.00 0.03 0.00 38 1013.9
20260505172241 18 240 1.6 14.5 0.00 0.03 0.00 37 1013.9
20260505171740 18 355 0.0 14.5 0.00 0.03 0.00 37 1013.9
20260505171241 18 310 0.0 22.5 0.00 0.03 0.00 37 1013.9
20260505170741 18 286 8.0 22.5 0.00 0.03 0.00 37 1013.9
20260505170241 18 294 14.5 20.9 0.00 0.03 0.00 36 1013.9
20260505165740 17 300 3.2 17.7 0.00 0.03 0.00 36 1013.9
20260505165241 17 331 1.6 16.1 0.00 0.03 0.00 36 1014.2
20260505164740 16 331 4.8 17.7 0.00 0.03 0.00 36 1014.3
20260505164240 16 300 9.7 19.3 0.00 0.03 0.00 36 1014.2
20260505163740 17 263 4.8 19.3 0.00 0.03 0.00 36 1014.1
20260505163240 17 257 6.4 19.3 0.00 0.03 0.00 35 1014.2
20260505162740 17 307 3.2 19.3 0.00 0.03 0.00 34 1014.1
20260505162240 16 311 9.7 17.7 0.00 0.03 0.00 34 1014.2
20260505161740 16 294 6.4 17.7 0.00 0.03 0.00 34 1014.1
20260505161240 16 295 1.6 14.5 0.00 0.03 0.00 33 1013.9
20260505160740 16 307 3.2 16.1 0.00 0.03 0.00 32 1014.0
20260505153240 13 298 8.0 16.1 0.00 0.03 0.00 20 1014.0
20260505152739 13 324 6.4 9.7 0.00 0.03 0.00 17 1014.0
20260505151739 13 277 0.0 6.4 0.00 0.03 0.00 14 1014.1
20260505151239 13 279 0.0 6.4 0.00 0.03 0.00 14 1013.8